Wind_Speed
20 21 22 22 22 23 23 23 23 23 24 24 24 25 26 25 25 25 25 24 26 26 26 26 27 27 26 27 26 26 26 26 25 25 25 26 26 26
21 22 22 23 23 23 23 23 23 23 23 23 24 25 25 25 25 24 25 25 26 27 28 28 27 28 27 28 28 28 28 28 27 27 26 26 27 27
22 22 23 23 23 24 24 24 23 23 22 23 24 25 25 25 24 24 24 25 26 27 28 29 29 28 28 29 29 30 30 30 30 29 29 29 29 29
22 22 22 23 23 24 24 24 24 24 24 24 25 26 26 25 25 25 25 26 26 27 28 29 29 29 29 29 29 30 31 31 31 31 31 30 30 30
23 23 23 23 24 24 24 24 24 24 25 25 26 26 26 26 26 26 26 27 27 27 27 28 28 29 30 30 30 31 32 32 32 33 32 31 31 31
23 24 24 24 24 24 25 24 24 25 25 26 25 25 26 26 26 26 27 27 28 27 27 28 28 28 29 30 30 32 33 33 32 32 32 31 31 32
24 24 25 25 26 26 25 25 26 26 26 26 26 26 26 26 26 26 27 27 27 28 28 28 28 27 28 28 31 31 32 32 32 32 32 31 31 31
25 25 25 26 26 26 26 26 26 27 27 27 26 26 27 27 27 27 27 27 28 28 28 28 28 28 28 28 29 31 31 31 32 32 33 32 32 32
24 25 25 26 27 26 26 26 26 27 27 27 27 26 26 28 28 28 28 28 28 28 28 27 28 28 28 29 29 29 30 31 31 31 32 32 32 31
25 26 26 27 27 27 27 26 27 27 27 27 27 27 27 28 28 29 29 29 29 29 29 28 27 28 28 28 28 28 28 29 30 30 30 31 31 31
25 26 27 27 27 27 27 27 27 27 26 26 26 26 26 27 28 28 28 28 28 28 28 27 26 26 26 25 26 27 28 28 28 29 30 30 30 30
26 26 27 27 26 26 26 26 26 26 26 26 26 25 25 26 27 28 27 27 26 27 27 26 25 25 25 25 27 28 29 29 29 29 30 31 31 31
26 27 27 27 26 26 26 26 26 26 25 25 25 25 25 25 25 25 26 26 26 26 27 28 27 27 27 26 27 27 28 28 28 28 29 30 30 30
26 26 26 26 26 26 26 26 26 26 25 25 25 24 25 25 25 25 25 26 25 26 27 28 28 28 28 28 27 27 28 28 28 28 29 29 29 29
25 25 25 26 26 25 26 26 25 25 25 24 24 24 24 24 23 24 24 24 25 25 26 27 27 27 27 27 27 27 28 29 29 29 29 29 29 29
25 25 25 25 25 25 25 26 25 25 24 23 23 23 22 23 23 23 24 25 24 24 25 25 26 26 27 27 27 27 27 28 29 29 30 29 29 29
24 24 24 24 24 24 24 24 23 23 22 22 22 22 22 22 23 22 23 23 23 24 24 24 25 25 25 26 26 26 26 27 28 28 29 29 29 29
23 24 24 24 24 24 23 22 22 22 21 21 22 22 22 21 21 21 22 23 23 24 24 24 25 25 25 25 26 26 27 27 28 28 28 28 28 28
23 23 22 23 23 24 23 23 22 22 21 21 21 20 21 21 21 22 22 23 23 24 24 24 24 24 25 26 25 26 26 26 26 27 27 27 26 26
23 22 22 23 23 23 23 23 23 23 22 22 21 22 22 22 22 22 22 22 22 23 23 23 24 24 25 25 24 24 24 25 25 25 26 26 26 26
23 23 23 23 22 22 23 23 23 23 22 22 22 22 22 22 22 22 23 23 23 23 23 23 24 24 23 23 23 23 23 23 24 24 24 24 24 25
23 23 23 23 23 23 24 24 24 23 23 23 23 23 22 22 22 23 23 23 23 23 23 23 23 22 22 22 21 21 22 22 22 23 23 22 22 23
23 24 24 23 23 24 24 24 23 23 22 22 22 23 23 22 23 23 23 22 22 22 21 21 21 21 21 22 21 20 20 20 21 22 22 22 22 22
Wind_Direction
286 286 285 284 284 283 281 281 280 278 275 275 276 276 274 272 270 268 265 263 259 258 258 259 259 258 257 258 258 257 257 256 255 255 256 252 251 252
287 287 284 284 283 282 281 281 281 280 277 276 276 276 275 275 272 268 265 264 263 262 260 260 259 259 258 259 259 259 259 257 255 256 257 255 253 253
291 288 286 286 285 284 282 282 280 279 278 277 277 276 276 275 273 270 268 267 266 264 262 261 259 258 258 259 258 258 258 257 258 257 257 257 255 254
293 291 289 287 287 285 284 282 280 279 279 278 278 277 276 274 273 272 270 270 269 267 265 263 261 261 260 258 257 256 256 257 257 257 257 257 257 256
293 292 290 288 287 286 284 283 281 280 279 279 279 277 276 274 273 271 271 271 271 270 268 266 264 262 261 258 257 257 256 256 256 257 257 256 256 255
293 292 291 289 287 286 285 284 283 282 281 280 281 278 275 274 273 272 272 272 271 270 270 269 267 266 264 261 258 258 259 258 257 255 255 255 254 254
293 291 291 290 288 287 285 284 283 283 282 281 280 277 275 274 272 272 273 273 272 272 271 270 269 268 266 263 260 258 258 257 256 255 254 254 254 254
293 292 291 291 289 287 286 285 286 286 284 283 280 279 275 273 273 272 272 273 273 272 271 270 269 269 267 264 263 260 258 256 256 256 256 256 255 255
295 295 295 295 292 288 286 287 286 287 286 283 280 280 277 274 275 275 274 274 272 272 271 271 271 271 269 266 264 261 259 256 255 256 257 258 258 257
297 296 295 294 293 289 287 287 287 286 286 284 282 281 279 277 276 276 275 274 273 272 271 270 269 268 268 267 264 262 260 258 257 256 257 257 257 256
299 298 297 295 292 290 287 286 287 288 289 285 284 284 281 278 276 275 276 275 273 273 271 269 268 267 268 268 266 264 261 261 262 260 259 257 256 254
299 299 298 296 294 292 289 286 287 288 288 286 285 284 284 282 279 277 276 275 272 270 269 268 268 268 267 268 268 266 264 263 264 262 261 260 258 257
300 301 300 298 295 293 291 290 288 288 287 285 286 287 286 286 284 282 279 277 275 271 268 267 267 268 267 267 268 268 267 265 264 264 263 262 261 259
302 301 301 301 298 295 293 292 290 289 286 286 287 288 288 287 286 285 282 279 277 274 271 269 268 267 266 267 267 268 267 267 265 264 263 263 261 261
304 303 302 302 301 297 294 292 291 290 287 286 288 290 288 287 286 285 284 281 279 277 274 271 269 268 268 268 269 268 267 266 266 264 262 262 261 261
305 305 304 304 303 300 297 294 293 291 287 285 286 289 291 289 288 287 286 283 281 278 275 273 271 270 270 269 269 269 267 265 264 264 263 262 262 261
305 306 306 306 306 304 300 297 295 292 288 285 284 286 290 290 289 289 288 287 284 279 276 274 272 270 270 270 270 269 268 267 264 263 262 261 260 260
308 307 306 307 307 306 304 301 299 293 289 286 285 286 289 289 290 290 290 287 284 283 279 276 274 272 270 269 269 269 268 266 263 262 261 260 258 258
309 309 308 308 308 308 305 301 300 296 291 290 288 287 289 290 290 291 292 290 286 283 278 276 275 273 271 271 270 269 268 265 263 261 260 258 257 256
308 310 311 311 309 309 307 302 300 297 291 290 289 287 288 288 287 290 291 290 288 284 279 276 275 275 274 271 269 268 266 264 262 261 260 259 258 256
308 308 311 314 313 311 309 307 303 298 291 291 291 290 290 288 287 289 290 290 288 286 282 279 276 276 276 272 270 268 265 263 262 261 260 259 258 257
307 308 310 312 313 313 312 308 307 303 294 290 290 291 292 290 289 289 290 290 289 288 285 282 279 276 275 274 273 269 264 260 259 260 260 258 259 259
306 306 307 309 310 312 312 309 307 305 299 294 293 293 292 291 291 291 290 290 290 290 287 284 281 278 275 274 272 268 264 262 262 262 259 257 256 258
Height
5827 5825 5824 5823 5821 5820 5820 5819 5818 5817 5816 5815 5814 5813 5812 5811 5811 5810 5810 5810 5810 5810 5810 5811 5811 5812 5812 5813 5814 5815 5816 5817 5819 5820 5821 5823 5825 5827
5821 5820 5818 5817 5815 5814 5813 5812 5810 5810 5809 5809 5807 5806 5805 5804 5803 5803 5803 5803 5803 5803 5803 5803 5804 5804 5805 5805 5806 5807 5809 5810 5811 5813 5814 5816 5818 5819
5815 5814 5812 5810 5808 5807 5806 5805 5804 5803 5802 5802 5800 5799 5798 5797 5796 5796 5795 5795 5795 5795 5795 5795 5796 5796 5797 5797 5798 5799 5800 5802 5804 5805 5807 5808 5810 5812
5809 5807 5805 5804 5802 5800 5799 5798 5796 5796 5795 5794 5793 5791 5790 5789 5789 5788 5788 5788 5788 5787 5787 5787 5787 5787 5788 5788 5789 5790 5792 5793 5795 5797 5799 5800 5801 5803
5803 5801 5799 5797 5795 5794 5792 5791 5789 5789 5788 5787 5785 5784 5783 5782 5781 5781 5780 5780 5779 5779 5779 5779 5778 5778 5778 5779 5780 5781 5783 5784 5786 5788 5790 5791 5793 5795
5796 5794 5792 5790 5788 5787 5785 5784 5783 5781 5780 5779 5778 5776 5775 5774 5774 5773 5772 5772 5771 5771 5770 5770 5769 5769 5769 5770 5771 5772 5773 5774 5776 5778 5780 5782 5784 5785
5790 5788 5785 5783 5781 5779 5778 5776 5775 5774 5773 5771 5770 5768 5767 5766 5766 5765 5764 5763 5763 5762 5762 5761 5761 5761 5761 5761 5761 5763 5764 5765 5767 5769 5771 5773 5775 5776
5783 5781 5778 5776 5774 5772 5770 5769 5767 5766 5764 5763 5762 5761 5759 5758 5757 5757 5756 5756 5755 5755 5753 5753 5753 5752 5752 5752 5752 5753 5755 5756 5758 5760 5762 5764 5766 5768
5776 5774 5771 5768 5766 5764 5763 5761 5760 5758 5756 5755 5754 5752 5751 5750 5749 5749 5748 5747 5747 5746 5745 5745 5744 5744 5744 5744 5744 5745 5746 5748 5749 5751 5753 5755 5757 5758
5769 5766 5764 5761 5758 5757 5755 5754 5752 5750 5748 5747 5746 5744 5743 5742 5741 5740 5739 5739 5738 5737 5737 5737 5736 5736 5736 5736 5736 5737 5738 5739 5741 5743 5744 5746 5747 5750
5762 5759 5756 5753 5751 5749 5747 5746 5744 5742 5740 5739 5737 5736 5734 5733 5733 5732 5731 5731 5730 5729 5729 5728 5729 5728 5728 5728 5729 5730 5730 5732 5733 5734 5736 5737 5739 5741
5755 5752 5749 5746 5744 5741 5739 5738 5737 5735 5733 5731 5729 5728 5727 5725 5724 5724 5723 5722 5721 5722 5721 5720 5720 5721 5721 5722 5721 5722 5722 5724 5725 5726 5727 5729 5730 5732
5748 5745 5742 5739 5737 5734 5732 5731 5729 5727 5725 5724 5722 5721 5720 5718 5717 5716 5715 5714 5713 5713 5713 5712 5713 5713 5713 5714 5714 5714 5715 5716 5717 5718 5719 5721 5722 5724
5742 5739 5736 5732 5730 5727 5725 5723 5722 5720 5719 5717 5716 5714 5713 5711 5710 5708 5707 5706 5705 5705 5704 5704 5705 5705 5705 5706 5706 5707 5707 5708 5709 5710 5711 5712 5714 5715
5735 5732 5729 5726 5723 5720 5718 5717 5715 5713 5712 5710 5709 5708 5706 5704 5703 5701 5700 5698 5697 5696 5696 5696 5696 5697 5697 5698 5698 5699 5699 5700 5700 5701 5703 5704 5705 5707
5729 5726 5723 5720 5717 5714 5712 5710 5708 5706 5705 5704 5702 5701 5699 5697 5696 5694 5693 5691 5690 5689 5688 5687 5688 5689 5689 5689 5690 5690 5691 5691 5692 5693 5694 5695 5697 5698
5723 5720 5717 5714 5711 5708 5705 5703 5702 5700 5698 5697 5696 5694 5692 5691 5689 5687 5686 5684 5683 5682 5681 5680 5680 5680 5681 5681 5681 5681 5682 5683 5683 5684 5685 5687 5688 5690
5717 5714 5711 5708 5705 5702 5700 5697 5695 5694 5692 5691 5689 5688 5686 5684 5682 5681 5679 5677 5676 5674 5673 5672 5672 5672 5673 5673 5673 5673 5673 5674 5675 5675 5677 5678 5679 5681
5712 5709 5706 5703 5700 5697 5694 5692 5690 5688 5686 5684 5683 5681 5680 5678 5676 5674 5672 5670 5668 5667 5666 5665 5664 5664 5664 5664 5664 5664 5664 5665 5666 5667 5668 5669 5671 5672
5706 5703 5701 5698 5695 5692 5689 5686 5684 5682 5680 5678 5676 5675 5673 5672 5670 5668 5665 5663 5661 5660 5658 5657 5657 5656 5656 5656 5656 5656 5656 5657 5658 5659 5660 5661 5662 5664
5701 5698 5695 5692 5689 5686 5683 5680 5678 5675 5673 5672 5670 5668 5666 5665 5663 5661 5659 5656 5654 5653 5651 5650 5649 5649 5648 5648 5648 5648 5649 5649 5649 5650 5652 5653 5654 5656
5695 5692 5690 5687 5684 5681 5678 5675 5672 5669 5667 5665 5663 5661 5659 5658 5656 5654 5652 5649 5647 5645 5644 5643 5642 5641 5640 5641 5640 5641 5641 5642 5642 5643 5644 5645 5647 5648
5689 5686 5684 5681 5678 5675 5672 5669 5666 5663 5660 5659 5656 5654 5652 5650 5649 5647 5645 5643 5641 5639 5637 5635 5634 5634 5633 5633 5633 5633 5634 5635 5635 5636 5637 5638 5639 5641